KOSEN 1
1 49402U 21102H   25349.06748558  .00006338  00000-0  26636-3 0  9997
2 49402  97.3477  29.9092 0015808 133.5277 226.7277 15.23655443225953
HO-113
1 50466U 21131B   25349.35792370  .00000883  00000-0  28783-3 0  9998
2 50466  98.5048  77.7659 0003094 296.6849  63.4023 14.41117693208632
SNUGLITE 2
1 52899U 22065F   25349.33131321  .00001164  00000-0  23201-3 0  9991
2 52899  98.1921 129.8493 0006569 235.9154 124.1425 14.63844745184093
UmKA 1 (RS40S)
1 57172U 23091G   25349.37860142  .00005477  00000-0  27043-3 0  9993
2 57172  97.5345  43.8319 0014532  44.8327 315.4079 15.18207895136092
CubeBel-2 (EU11S)
1 57175U 23091K   25349.34733297  .00008836  00000-0  36587-3 0  9998
2 57175  97.5344  46.3112 0011920  47.9999 312.2251 15.24104003136259
RS-38S
1 57189U 23091Z   25349.38850733  .00011691  00000-0  41155-3 0  9992
2 57189  97.5369  50.8260 0008536  14.0736 346.0740 15.29449848136531
SONATE-2
1 59112U 24043Q   25349.30817397  .00022205  00000-0  46798-3 0  9990
2 59112  97.5320 125.6549 0009081 152.5497 207.6233 15.45222748 99370
MO-122
1 60209U 24125G   25349.31221615  .00024084  00000-0  48575-3 0  9995
2 60209  97.2525 199.6858 0014337 168.1212 192.0379 15.46421614 81008
GRBBeta
1 60237U 24128C   25349.01072217  .00003617  00000-0  26148-3 0  9999
2 60237  61.9890 141.6106 0056187  96.9844 263.7644 15.04781652 78533
Curium One
1 60242U 24128H   25349.11508685  .00006488  00000-0  40789-3 0  9995
2 60242  61.9783 136.0663 0056000  93.8679 266.8820 15.08942629 78641
ROBUSTA-3A
1 60243U 24128J   25348.72170913  .00006847  00000-0  43771-3 0  9994
2 60243  61.9859 138.9935 0056178  91.2694 269.4836 15.08252628 78564
CatSat
1 60246U 24125J   25349.33777353  .00026611  00000-0  63824-3 0  9995
2 60246  97.2314 196.6943 0034179 134.9888 225.4138 15.40741659 78922
HYPERVIEW-1G (RS66S)
1 61772U 24199AP  25349.32851488  .00031924  00000-0  60884-3 0  9998
2 61772  97.3213 218.7959 0008016 224.9300 135.1303 15.48069482106017
AO-123
1 61781U 24199AY  25349.35064377  .00008121  00000-0  26460-3 0  9999
2 61781  97.3254 214.7719 0012869 245.0614 114.9291 15.32010109105740
ZIMSAT 2
1 61783U 24199BA  25349.65557653  .00176124  00000-0  11846-2 0  9998
2 61783  97.3088 222.7659 0004182 174.0664 186.0651 15.74645839109467
HADES-R (SO-124)
1 62690U 25009CK  25349.20528066  .00123528  00000-0  15207-2 0  9999
2 62690  97.3863  71.9218 0001087 258.3750 101.7385 15.59815644 51161
HYDRA-T
1 62692U 25009CM  25349.18071537  .00138560  00000-0  15774-2 0  9995
2 62692  97.3868  72.1056 0001639 274.8603  85.2467 15.61814907 51176
JINJUSat 1B
1 63210U 25052A   25349.14498272  .00010215  00000-0  39056-3 0  9991
2 63210  97.4206 241.2851 0005270  41.8756 318.2886 15.26779390 41954
NUSHSAT 1
1 63211U 25052B   25349.20414196  .00013257  00000-0  48974-3 0  9990
2 63211  97.4187 241.4689 0005364  44.4071 315.7598 15.27849269 41975
TEVEL2-4
1 63213U 25052D   25348.94399458  .00011069  00000-0  41809-3 0  9994
2 63213  97.4107 240.7572 0004939  58.7302 301.4420 15.27162247 41929
TEVEL2-5
1 63214U 25052E   25349.14614184  .00011264  00000-0  42626-3 0  9999
2 63214  97.4100 240.9453 0004953  58.7678 301.4046 15.27093140 41957
TEVEL2-6
1 63215U 25052F   25349.28457870  .00011785  00000-0  44638-3 0  9995
2 63215  97.4108 241.0712 0005102  58.7757 301.3981 15.27050158 41972
TEVEL2-1
1 63217U 25052H   25349.19671716  .00012024  00000-0  45995-3 0  9998
2 63217  97.4084 240.7928 0005225  66.7745 293.4043 15.26716825 41951
TEVEL2-3
1 63218U 25052J   25349.13034184  .00011534  00000-0  44107-3 0  9994
2 63218  97.4083 240.7324 0005294  68.0022 292.1779 15.26737008 41947
TEVEL2-2
1 63219U 25052K   25349.13194210  .00010908  00000-0  41760-3 0  9998
2 63219  97.4084 240.7285 0005290  68.1420 292.0381 15.26714963 41947
TEVEL2-9
1 63237U 25052AD  25349.16294502  .00009963  00000-0  39891-3 0  9997
2 63237  97.4147 240.4625 0009342  75.6716 284.5558 15.25214946 41919
TEVEL2-7
1 63238U 25052AE  25349.17709748  .00011081  00000-0  44531-3 0  9993
2 63238  97.4146 240.4505 0009358  75.9168 284.3109 15.25062609 41914
TEVEL2-8
1 63239U 25052AF  25348.98593322  .00010816  00000-0  43519-3 0  9991
2 63239  97.4145 240.2455 0009373  76.2788 283.9493 15.25030119 41883
HYDRA-W
1 63490U 25052BL  25348.19495536  .00078851  00000-0  18529-2 0  9996
2 63490  97.4063 241.9963 0011524  68.3865 291.8608 15.41651156 41943
HADES-ICM (SO-125)
1 63492U 25052BN  25348.97147613  .00038798  00000-0  97714-3 0  9994
2 63492  97.4083 242.5092 0011745  69.2947 290.9556 15.39733774 42041
Dragonfly
1 65729U 98067XH  25348.77233981  .00152909  00000-0  10954-2 0  9998
2 65729  51.6244 125.3489 0006962 292.1448  67.8811 15.72674024 13483
RSP-03
1 65732U 98067XL  25349.09576733  .00101794  00000-0  84849-3 0  9994
2 65732  51.6255 124.5189 0005620 267.5982  92.4371 15.69261610 13536
GHS-01
1 65733U 98067XM  25349.10064835  .00167711  00000-0  10424-2 0  9990
2 65733  51.6273 123.0490 0007439 297.3204  62.7038 15.75909200 13557
BOTAN
1 65942U 98067XP  25347.80521917  .00116317  00000-0  12360-2 0  9993
2 65942  51.6273 133.9097 0002985 245.5023 114.5660 15.63168137 10037
BEE-1000
1 66650U 25274A   25349.03317377  .00001479  00000-0  15258-3 0  9992
2 66650  97.7391 276.1786 0010431 242.8102 117.2054 14.91671974  2748
SPIRONE
1 66657U 25274H   25348.88972094  .00002979  00000-0  29562-3 0  9993
2 66657  97.7387 276.0581 0010573 267.8338  92.1671 14.92469641  2728
K-HERO
1 66660U 25274L   25349.35266622  .00002831  00000-0  27764-3 0  9992
2 66660  97.7393 276.5294 0012467 271.0276  88.9515 14.92976466  2792
SNUGLITE-III DURI
1 66661U 25274M   25349.35082410  .00002562  00000-0  25087-3 0  9991
2 66661  97.7393 276.5309 0013118 272.4214  87.5504 14.93112348  2796
SilverSat
1 66909U 98067XV  25348.91541272  .00047853  00000-0  78463-3 0  9991
2 66909  51.6297 131.5680 0004168 239.8452 120.2125 15.51959159  1956
CEVROSAT1
1 98526U 25248E   25313.13142326  .00000000  00000-0  19360-3 0    02
2 98526  45.4084 218.4764 0001315 254.8982 242.1062 15.17981583    02
